• In Czech Republic
  • List of Countries
  • For 7 days
  • Water Temperature
  • Satellite Maps
  • Weather Map
  • Weather Widgets
  • user-avatar
    Login

    Hourly Weather San Luis

    Today, 19 August, Sunday

    Time Temperature Precipitation Wind Pressure Humidity
    00:00 +4°C° 0 mm 6 mps 708 mmHg 26%
    01:00 +4°C° 0 mm 6 mps 708 mmHg 27%
    02:00 +3°C° 0 mm 5 mps 709 mmHg 29%
    03:00 +3°C° 0 mm 5 mps 709 mmHg 32%
    04:00 +3°C° 0 mm 4 mps 709 mmHg 34%
    05:00 +3°C° 0 mm 4 mps 709 mmHg 37%
    06:00 +3°C° 0 mm 4 mps 710 mmHg 38%
    07:00 +3°C° 0 mm 4 mps 710 mmHg 38%
    08:00 +3°C° 0 mm 4 mps 711 mmHg 39%
    09:00 +5°C° 0 mm 5 mps 712 mmHg 35%
    10:00 +7°C° 0 mm 5 mps 712 mmHg 31%
    11:00 +8°C° 0 mm 6 mps 713 mmHg 27%
    12:00 +9°C° 0 mm 6 mps 713 mmHg 25%
    13:00 +9°C° 0 mm 6 mps 712 mmHg 23%
    14:00 +10°C° 0 mm 6 mps 712 mmHg 21%
    15:00 +10°C° 0 mm 6 mps 711 mmHg 21%
    16:00 +9°C° 0 mm 6 mps 711 mmHg 21%
    17:00 +9°C° 0 mm 5 mps 711 mmHg 22%
    18:00 +8°C° 0 mm 5 mps 711 mmHg 24%
    19:00 +6°C° 0 mm 5 mps 711 mmHg 26%
    20:00 +5°C° 0 mm 4 mps 711 mmHg 28%
    21:00 +4°C° 0 mm 4 mps 711 mmHg 29%
    22:00 +4°C° 0 mm 4 mps 711 mmHg 30%
    23:00 +3°C° 0 mm 4 mps 711 mmHg 31%

    Tomorrow, 20 August, Monday

    Time Temperature Precipitation Wind Pressure Humidity
    00:00 +3°C° 0 mm 4 mps 711 mmHg 32%
    01:00 +1°C° 0 mm 4 mps 711 mmHg 33%
    02:00 +2°C° 0 mm 3 mps 710 mmHg 35%
    03:00 +2°C° 0 mm 3 mps 710 mmHg 35%
    04:00 +1°C° 0 mm 3 mps 709 mmHg 35%
    05:00 +1°C° 0 mm 3 mps 709 mmHg 35%
    06:00 +2°C° 0 mm 3 mps 709 mmHg 33%
    07:00 +3°C° 0 mm 3 mps 709 mmHg 32%
    08:00 +3°C° 0 mm 3 mps 709 mmHg 30%
    09:00 +5°C° 0 mm 3 mps 710 mmHg 27%
    10:00 +8°C° 0 mm 3 mps 710 mmHg 23%
    11:00 +11°C° 0 mm 3 mps 710 mmHg 20%
    12:00 +12°C° 0 mm 3 mps 709 mmHg 19%
    13:00 +13°C° 0 mm 4 mps 708 mmHg 18%
    14:00 +14°C° 0 mm 4 mps 707 mmHg 18%
    15:00 +13°C° 0 mm 4 mps 706 mmHg 18%
    16:00 +13°C° 0 mm 4 mps 706 mmHg 19%
    17:00 +13°C° 0 mm 4 mps 705 mmHg 20%
    18:00 +12°C° 0 mm 4 mps 705 mmHg 23%
    19:00 +10°C° 0 mm 4 mps 705 mmHg 27%
    20:00 +7°C° 0 mm 4 mps 704 mmHg 30%
    21:00 +7°C° 0 mm 5 mps 705 mmHg 31%
    22:00 +7°C° 0 mm 5 mps 705 mmHg 32%
    23:00 +5°C° 0 mm 6 mps 705 mmHg 33%

    Day after tomorrow, 21 August, Tuesday

    Time Temperature Precipitation Wind Pressure Humidity
    00:00 +5°C° 0 mm 6 mps 704 mmHg 34%
    01:00 +5°C° 0 mm 7 mps 704 mmHg 35%
    02:00 +5°C° 0 mm 8 mps 704 mmHg 36%
    03:00 +4°C° 0 mm 7 mps 703 mmHg 36%
    04:00 +4°C° 0 mm 7 mps 703 mmHg 37%
    05:00 +4°C° 0 mm 7 mps 703 mmHg 37%
    06:00 +4°C° 0 mm 7 mps 703 mmHg 36%
    07:00 +5°C° 0 mm 7 mps 703 mmHg 36%
    08:00 +5°C° 0 mm 7 mps 704 mmHg 36%
    09:00 +8°C° 0 mm 7 mps 704 mmHg 31%
    10:00 +11°C° 0 mm 7 mps 704 mmHg 26%
    11:00 +14°C° 0 mm 7 mps 704 mmHg 21%
    12:00 +16°C° 0 mm 7 mps 704 mmHg 19%
    13:00 +17°C° 0 mm 6 mps 703 mmHg 17%
    14:00 +19°C° 0 mm 6 mps 703 mmHg 15%
    15:00 +19°C° 0 mm 6 mps 702 mmHg 16%
    16:00 +17°C° 0 mm 6 mps 702 mmHg 16%
    17:00 +17°C° 0 mm 6 mps 701 mmHg 17%
    18:00 +15°C° 0 mm 6 mps 701 mmHg 20%
    19:00 +13°C° 0 mm 6 mps 701 mmHg 24%
    20:00 +10°C° 0 mm 5 mps 701 mmHg 28%
    21:00 +10°C° 0 mm 6 mps 701 mmHg 28%
    22:00 +9°C° 0 mm 7 mps 701 mmHg 29%
    23:00 +9°C° 0 mm 7 mps 701 mmHg 30%

    22 August, Wednesday

    Time Temperature Precipitation Wind Pressure Humidity
    00:00 +9°C° 0 mm 7 mps 701 mmHg 31%
    01:00 +9°C° 0 mm 8 mps 701 mmHg 32%
    02:00 +9°C° 0 mm 8 mps 701 mmHg 34%
    03:00 +7°C° 0 mm 8 mps 700 mmHg 35%
    04:00 +8°C° 0 mm 7 mps 700 mmHg 37%
    05:00 +8°C° 0 mm 7 mps 699 mmHg 38%
    06:00 +8°C° 0 mm 7 mps 700 mmHg 37%
    07:00 +9°C° 0 mm 8 mps 700 mmHg 37%
    08:00 +9°C° 0 mm 8 mps 700 mmHg 36%
    09:00 +12°C° 0 mm 8 mps 699 mmHg 31%
    10:00 +15°C° 0 mm 9 mps 699 mmHg 26%
    11:00 +18°C° 0 mm 10 mps 699 mmHg 20%
    12:00 +19°C° 0 mm 10 mps 698 mmHg 19%
    13:00 +21°C° 0 mm 10 mps 697 mmHg 18%
    14:00 +22°C° 0 mm 11 mps 696 mmHg 17%
    15:00 +21°C° 0 mm 11 mps 695 mmHg 19%
    16:00 +19°C° 0 mm 10 mps 694 mmHg 21%
    17:00 +18°C° 0 mm 10 mps 693 mmHg 22%
    18:00 +17°C° 0 mm 10 mps 693 mmHg 25%
    19:00 +16°C° 0 mm 10 mps 692 mmHg 28%
    20:00 +13°C° 0 mm 10 mps 692 mmHg 31%
    21:00 +13°C° 0 mm 11 mps 692 mmHg 31%
    22:00 +13°C° 0 mm 12 mps 691 mmHg 32%
    23:00 +13°C° 0 mm 13 mps 691 mmHg 32%

    23 August, Thursday

    Time Temperature Precipitation Wind Pressure Humidity
    00:00 +13°C° 0 mm 13 mps 691 mmHg 34%
    01:00 +13°C° 0 mm 14 mps 690 mmHg 35%
    02:00 +13°C° 0 mm 14 mps 690 mmHg 36%
    03:00 +13°C° 0 mm 14 mps 689 mmHg 37%
    04:00 +12°C° 0 mm 13 mps 689 mmHg 37%
    05:00 +12°C° 0 mm 13 mps 689 mmHg 38%
    06:00 +12°C° 0 mm 11 mps 689 mmHg 39%
    07:00 +12°C° 0 mm 9 mps 690 mmHg 40%
    08:00 +11°C° 0 mm 8 mps 690 mmHg 41%
    09:00 +14°C° 0 mm 7 mps 691 mmHg 36%
    10:00 +16°C° 0 mm 7 mps 691 mmHg 32%
    11:00 +19°C° 0 mm 6 mps 692 mmHg 28%
    12:00 +19°C° 0 mm 5 mps 692 mmHg 27%
    13:00 +20°C° 0 mm 4 mps 692 mmHg 25%
    14:00 +21°C° 0 mm 4 mps 692 mmHg 24%
    15:00 +20°C° 0 mm 5 mps 692 mmHg 26%
    16:00 +20°C° 0 mm 6 mps 692 mmHg 27%
    17:00 +18°C° 0 mm 8 mps 692 mmHg 29%
    18:00 +17°C° 0 mm 9 mps 692 mmHg 33%
    19:00 +15°C° 0 mm 9 mps 693 mmHg 37%
    20:00 +13°C° 0 mm 10 mps 694 mmHg 41%
    21:00 +12°C° 0 mm 10 mps 695 mmHg 44%
    22:00 +11°C° 0 mm 10 mps 695 mmHg 48%
    23:00 +9°C° 0 mm 10 mps 696 mmHg 51%

    24 August, Friday

    Time Temperature Precipitation Wind Pressure Humidity
    00:00 +9°C° 0.3 mm 11 mps 697 mmHg 52%
    01:00 +8°C° 0.3 mm 12 mps 697 mmHg 52%
    02:00 +8°C° 0.3 mm 12 mps 698 mmHg 52%
    03:00 +8°C° 0.3 mm 12 mps 698 mmHg 50%
    04:00 +8°C° 0.3 mm 11 mps 699 mmHg 48%
    05:00 +7°C° 0.3 mm 11 mps 699 mmHg 46%
    06:00 +7°C° 0.1 mm 11 mps 700 mmHg 44%
    07:00 +7°C° 0.1 mm 11 mps 701 mmHg 41%
    08:00 +7°C° 0.1 mm 11 mps 702 mmHg 38%
    09:00 +8°C° 0.1 mm 11 mps 703 mmHg 35%
    10:00 +8°C° 0.1 mm 11 mps 704 mmHg 32%
    11:00 +9°C° 0.1 mm 11 mps 704 mmHg 28%
    12:00 +9°C° 0 mm 10 mps 704 mmHg 29%
    13:00 +9°C° 0 mm 10 mps 704 mmHg 30%
    14:00 +11°C° 0 mm 10 mps 704 mmHg 31%
    15:00 +11°C° 0 mm 10 mps 704 mmHg 31%
    16:00 +11°C° 0 mm 9 mps 704 mmHg 32%
    17:00 +11°C° 0 mm 9 mps 704 mmHg 32%
    18:00 +10°C° 0 mm 8 mps 705 mmHg 33%
    19:00 +9°C° 0 mm 7 mps 705 mmHg 34%
    20:00 +9°C° 0 mm 6 mps 705 mmHg 35%
    21:00 +8°C° 0 mm 5 mps 705 mmHg 36%
    22:00 +7°C° 0 mm 5 mps 705 mmHg 37%
    23:00 +7°C° 0 mm 4 mps 705 mmHg 39%
    Show more